#timestamp,LO_Frequency,Hit,StdDev 
1531522815.4,286046998.6,N
1531522835.2,286046998.9,N
1531522855.1,286046998.6,N
1531522856.0,286046998.6,N
1531522875.8,286046999.3,N
1531522895.6,286046999.3,N
1531522915.5,286046998.7,N
1531522935.3,286047001.2,N
1531522955.1,286046998.6,N
1531522975.9,286046998.3,N
1531522995.7,286047000.7,N
1531523015.6,286046998.7,N
1531523035.4,286046999.4,N
1531523055.2,286046998.9,N
1531523075.1,286047001.0,N
1531523076.0,286047001.0,N
1531523095.8,286047000.8,N
1531523115.6,286046999.9,N
1531523135.5,286047000.3,N
1531523155.3,286047000.0,N
1531523175.2,286047001.0,N
1531523195.9,286046999.4,N
1531523215.7,286046998.2,N
1531523235.6,286046998.9,N
1531523255.4,286046996.6,Y
1531523275.3,286046997.2,P
1531523295.1,286046997.4,N
1531523296.0,286046997.4,N
1531523315.8,286046997.8,N
1531523335.7,286046997.2,Y
1531523355.5,286046998.4,P
1531523375.4,286047000.9,P
1531523395.2,286047000.4,N
1531523415.0,286047000.9,N
1531523415.9,286047000.9,N
1531523435.8,286047000.9,N
1531523455.6,286047001.1,N
1531523475.4,286046998.5,N
1531523495.3,286047000.1,N
1531523515.1,286047000.9,N
1531523535.9,286047000.6,N
1531523555.7,286047000.3,N
1531523575.5,286047002.5,N
1531523595.4,286047005.9,Y
1531523615.2,286047001.8,P
1531523635.0,286047002.4,P
1531523635.9,286047002.4,N
1531523655.8,286047001.1,N
1531523675.6,286047001.5,N
1531523695.5,286047002.4,Y
1531523715.3,286047001.2,P
1531523735.1,286046999.6,N
1531523755.9,286046998.8,N
1531523775.7,286046999.2,N
1531523795.5,286047000.2,N
1531523815.4,286047001.8,N
1531523835.2,286047001.9,N
1531523855.1,286047000.6,N
1531523856.0,286047000.6,N
1531523875.8,286046998.7,N
1531523895.6,286046998.9,N
1531523915.5,286047000.1,N
1531523935.3,286046998.1,N
1531523955.1,286046999.8,N
1531523975.9,286047000.0,N
1531523995.7,286046998.8,N
1531524015.6,286046999.1,N
1531524035.4,286046998.5,N
1531524055.2,286047001.1,N
1531524075.1,286046998.5,N
1531524095.4,286047001.8,N
1531524115.2,286047002.5,N
1531524135.0,286046998.4,N
1531524136.0,286046998.4,N
1531524155.8,286046996.5,N
1531524175.6,286046999.3,N
1531524195.5,286046998.7,N
1531524215.3,286046998.7,N
1531524235.1,286046998.7,N
1531524255.9,286047000.0,N
1531524275.7,286047000.8,N
1531524295.6,286046996.5,N
1531524315.4,286046997.8,N
1531524335.2,286046997.8,N
1531524355.1,286046995.7,N
1531524356.0,286046995.7,N
1531524375.8,286046995.6,N
1531524395.6,286046995.1,N
1531524415.5,286046995.0,N
1531524435.3,286046995.7,N
1531524455.2,286046994.9,N
1531524475.9,286046994.5,N
1531524495.7,286046992.2,Y
1531524515.6,286046993.4,P
1531524535.4,286046993.9,N
1531524555.3,286046995.7,N
1531524575.1,286046995.1,N
1531524576.0,286046995.1,Y
1531524595.8,286047000.7,P
1531524615.7,286047000.1,N
1531524665.5,286047000.8,E
1531524675.5,286046998.1,N
1531524695.3,286046998.8,P
1531524715.1,286046999.4,N
1531524735.9,286047001.0,N
1531524755.7,286046998.3,N
1531524775.6,286047001.1,N
1531524795.4,286046998.6,N
1531524815.2,286046998.6,N
1531524835.1,286047000.4,N
1531524836.0,286047000.4,N
1531524855.8,286046998.8,N
1531524875.7,286046998.4,N
1531524895.5,286046999.2,N
1531524915.3,286046999.3,N
1531524935.2,286046999.4,N
1531524955.0,286046996.5,Y
1531524955.9,286046996.5,P
1531524975.8,286047001.2,N
1531524995.6,286046998.4,N
1531525015.5,286047000.9,N
1531525035.3,286046999.8,N
1531525055.1,286047000.6,N
1531525075.9,286047000.1,N
1531525095.7,286046998.5,N
1531525115.6,286047000.4,N
1531525135.4,286047002.0,N
1531525155.2,286047002.8,N
1531525175.1,286047002.6,N
1531525176.0,286047002.6,N
1531525195.8,286047000.4,N
1531525215.7,286047000.7,N
1531525235.5,286046998.2,N
1531525255.3,286046998.2,N
1531525275.2,286047000.7,N
1531525295.9,286046998.1,N
1531525315.7,286047000.6,N
1531525335.6,286046999.8,N
1531525355.4,286047001.0,N
1531525375.2,286047000.8,N
1531525395.1,286047000.6,N
1531525396.0,286047000.6,N
1531525415.8,286047000.5,N
1531525435.7,286047000.6,N
1531525455.5,286047000.6,N
1531525475.3,286047002.3,N
1531525495.2,286047002.4,N
1531525515.0,286046999.8,N
1531525515.9,286046999.8,N
1531525535.8,286047000.4,N
1531525555.6,286046999.9,N
1531525575.4,286047000.9,N
1531525595.3,286047001.0,N
1531525615.1,286047002.4,N
1531525635.8,286046999.7,N
1531525655.7,286046998.2,N
1531525705.5,286047001.2,E
1531525715.5,286047000.6,N
1531525735.3,286046999.0,P
1531525755.1,286046997.6,P
1531525775.9,286046997.9,N
1531525795.7,286046995.0,Y
1531525815.6,286046996.9,P
1531525835.4,286046996.7,P
1531525855.2,286046996.9,P
1531525875.1,286046997.1,Y
1531525876.0,286046997.1,P
1531525895.4,286047000.2,N
1531525915.2,286047002.6,N
1531525935.0,286047001.3,N
1531525955.1,286047004.0,N
1531525956.0,286047004.0,N
1531525975.8,286047001.6,N
1531525995.7,286047004.3,N
1531526015.5,286047003.9,N
1531526035.3,286047004.2,N
1531526055.2,286047003.2,N
1531526075.0,286047003.2,N
1531526075.9,286047003.2,N
1531526095.7,286047003.6,N
1531526115.6,286047002.9,N
1531526135.4,286047002.9,N
1531526155.7,286047001.5,N
1531526175.6,286047003.6,N
1531526195.4,286047003.2,N
1531526215.3,286047005.6,N
1531526235.1,286047003.1,N
1531526255.8,286047003.2,N
1531526275.7,286047004.0,N
1531526295.5,286047001.4,N
1531526315.4,286047011.9,Y
1531526335.2,286047000.4,P
1531526355.0,286047002.4,N
1531526355.9,286047002.4,N
1531526375.8,286047002.2,N
1531526395.6,286047002.3,N
